Bookmark and Share
Track history (hours):
 

Wind Star

Operator: Holland America Line

Last reported at 2014-Apr-21 21:19 UTC. Time now 2014-Apr-23 15:44 UTC.
Position N 40°01' E 003°05'.

Length 135 m; draft 4.1 m.

Type: Ship. MMSI: 309163000.

NotesDate/timePositionNaut miles runAvg speedWind from/ knotsBaromVisibWave heightAir tempDewpointWater temp
2014-Apr-21 21:19N 40°01' E 003°05'7 8.5
2014-Apr-21 20:31N 39°59' E 002°56'7 7.6
2014-Apr-21 19:33N 39°54' E 002°49'7 7.1
2014-Apr-21 18:33N 39°50' E 002°42'1 1.0
2014-Apr-21 17:30N 39°48' E 002°41'0 0.1
2014-Apr-21 15:24N 39°48' E 002°41'0 0.0
2014-Apr-21 14:11N 39°48' E 002°41'0 0.0
2014-Apr-21 13:28N 39°48' E 002°41'0 0.0
2014-Apr-21 11:33N 39°48' E 002°41'0 0.0
2014-Apr-21 10:31N 39°48' E 002°41'0 0.1
2014-Apr-21 09:24N 39°48' E 002°41'0 0.0
2014-Apr-21 08:31N 39°48' E 002°41'0 0.0
2014-Apr-21 07:30N 39°48' E 002°41'0 0.0
2014-Apr-21 06:31N 39°48' E 002°41'0 0.0
2014-Apr-21 05:31N 39°48' E 002°41'3 3.4
2014-Apr-21 04:33N 39°52' E 002°40'6 6.3
2014-Apr-21 03:33N 39°58' E 002°38'7 6.9
2014-Apr-21 02:33N 40°04' E 002°36'7 7.0
2014-Apr-21 01:33N 40°11' E 002°34'7 7.1
2014-Apr-21 00:33N 40°18' E 002°32'7 7.2
2014-Apr-20 23:33N 40°25' E 002°30'7 6.6
2014-Apr-20 22:33N 40°31' E 002°28'7 7.1
2014-Apr-20 21:33N 40°38' E 002°26'7 7.3
2014-Apr-20 20:33N 40°46' E 002°24'7 6.9
2014-Apr-20 19:32N 40°52' E 002°22'8 6.9
2014-Apr-20 18:18N 41°01' E 002°19'8 7.0
2014-Apr-20 17:09N 41°09' E 002°16'4 7.2
2014-Apr-20 16:32N 41°13' E 002°16'8 7.3
2014-Apr-20 15:27N 41°20' E 002°12'1 0.1
2014-Apr-20 04:12N 41°21' E 002°11'28 7.3
2014-Apr-20 00:25N 40°55' E 002°21'7 7.5
2014-Apr-19 23:33N 40°49' E 002°23'8 7.6
2014-Apr-19 22:33N 40°41' E 002°26'8 8.0
2014-Apr-19 21:34N 40°33' E 002°28'8 7.9
2014-Apr-19 20:33N 40°26' E 002°30'8 7.7
2014-Apr-19 19:33N 40°18' E 002°32'8 8.1
2014-Apr-19 18:30N 40°10' E 002°35'12 9.2
2014-Apr-19 17:15N 39°59' E 002°38'6 8.8
2014-Apr-19 16:33N 39°53' E 002°40'4 4.1
2014-Apr-19 15:29N 39°48' E 002°41'0 0.0
2014-Apr-19 12:17N 39°48' E 002°41'0 0.1
2014-Apr-19 11:32N 39°48' E 002°41'0 0.1
2014-Apr-19 10:32N 39°49' E 002°41'0 0.0
2014-Apr-19 09:23N 39°49' E 002°41'0 0.0
2014-Apr-19 08:32N 39°49' E 002°41'0 0.0
2014-Apr-19 07:27N 39°49' E 002°41'3 3.8
2014-Apr-19 06:33N 39°48' E 002°37'8 7.7
2014-Apr-19 05:34N 39°47' E 002°27'8 7.7
2014-Apr-19 04:34N 39°45' E 002°17'8 7.7
2014-Apr-19 03:34N 39°44' E 002°07'8 7.7
2014-Apr-19 02:34N 39°43' E 001°57'8 7.9
2014-Apr-19 01:33N 39°41' E 001°47'10 8.1
2014-Apr-19 00:19N 39°39' E 001°34'144 4.7
2014-Apr-17 17:33N 37°47' W 000°20'1211.6
2014-Apr-17 16:30N 37°37' W 000°29'11 9.3
2014-Apr-17 15:17N 37°32' W 000°42'  
2014-Apr-15 01:31N 36°10' W 005°04'1010.7
2014-Apr-15 00:34N 36°04' W 005°13'1110.8
2014-Apr-14 23:34N 35°59' W 005°25'10 9.5
2014-Apr-14 22:34N 35°55' W 005°36'212 4.6
2014-Apr-13 00:29N 37°32' W 009°31'8 8.4
2014-Apr-12 23:33N 37°40' W 009°30'8 8.5
2014-Apr-12 22:33N 37°48' W 009°30'9 8.7
2014-Apr-12 21:30N 37°57' W 009°29'9 9.0
2014-Apr-12 20:33N 38°05' W 009°27'10 9.3
2014-Apr-12 19:32N 38°15' W 009°26'21 9.5
2014-Apr-12 17:19N 38°36' W 009°23'811.0
2014-Apr-12 16:33N 38°41' W 009°15'4 4.1
2014-Apr-12 15:33N 38°42' W 009°10'0 0.0
2014-Apr-12 14:33N 38°42' W 009°10'0 0.0
2014-Apr-12 13:33N 38°42' W 009°10'0 0.0
2014-Apr-12 12:33N 38°42' W 009°10'0 0.0
2014-Apr-12 11:33N 38°42' W 009°10'0 0.0
2014-Apr-12 10:33N 38°42' W 009°10'0 0.0
2014-Apr-12 09:33N 38°42' W 009°10'0 0.0
2014-Apr-12 08:33N 38°42' W 009°10'0 0.0
2014-Apr-12 07:33N 38°42' W 009°10'0 0.0
2014-Apr-12 06:33N 38°42' W 009°10'0 0.0
2014-Apr-12 05:33N 38°42' W 009°10'3 3.5
2014-Apr-12 04:33N 38°41' W 009°14'5 5.0
2014-Apr-12 03:33N 38°39' W 009°20'21 6.4
2014-Apr-12 00:14N 38°31' W 009°45'6 6.9
2014-Apr-11 23:21N 38°30' W 009°53'  

Dump ship's entire track history

sailing weather and tide predictions

Wind Star — C6CA9 — position and weather